This is the latest recevied weather packets stored in our database for station/object N4YH-13. If no packets are shown the sender has not sent any weather packets the latest 10 day(s).
| Time | Temp. | Humidity | Pressure | Rain* | Wind** | Luminosity | Snow |
|---|---|---|---|---|---|---|---|
| 1777666083 | 18.89° C | 51% | 1011.7 hPa | 0 mm | - | - | - |
| 1777665964 | 18.89° C | 50% | 1011.7 hPa | 0 mm | - | - | - |
| 1777665844 | 18.89° C | 50% | 1011.7 hPa | 0 mm | - | - | - |
| 1777665723 | 18.33° C | 49% | 1012.1 hPa | 0 mm | - | - | - |
| 1777665604 | 18.33° C | 48% | 1012.1 hPa | 0 mm | - | - | - |
| 1777665484 | 18.33° C | 47% | 1012.1 hPa | 0 mm | - | - | - |
| 1777665363 | 18.33° C | 49% | 1012.1 hPa | 0 mm | - | - | - |
| 1777665244 | 18.33° C | 49% | 1012.1 hPa | 0 mm | - | - | - |
| 1777665124 | 18.89° C | 47% | 1012.1 hPa | 0 mm | - | - | - |
| 1777665003 | 18.89° C | 51% | 1012.1 hPa | 0 mm | - | - | - |
| 1777664883 | 18.89° C | 49% | 1012.1 hPa | 0 mm | - | - | - |
| 1777664764 | 18.89° C | 48% | 1012.1 hPa | 0 mm | - | - | - |
| 1777664643 | 18.89° C | 46% | 1012.1 hPa | 0 mm | - | - | - |
| 1777664523 | 18.89° C | 51% | 1012.2 hPa | 0 mm | - | - | - |
| 1777664404 | 18.89° C | 49% | 1012.2 hPa | 0 mm | - | - | - |
| 1777664284 | 18.33° C | 47% | 1012.1 hPa | 0 mm | - | - | - |
| 1777664164 | 18.33° C | 47% | 1012.1 hPa | 0 mm | - | - | - |
| 1777664043 | 18.33° C | 48% | 1012.1 hPa | 0 mm | - | - | - |
| 1777663924 | 18.33° C | 49% | 1012.3 hPa | 0 mm | - | - | - |
| 1777663804 | 18.33° C | 48% | 1012.2 hPa | 0 mm | - | - | - |
| 1777663683 | 18.33° C | 50% | 1012.2 hPa | 0 mm | - | - | - |
| 1777663564 | 18.33° C | 46% | 1012.2 hPa | 0 mm | - | - | - |
| 1777663444 | 18.33° C | 45% | 1012.2 hPa | 0 mm | - | - | - |
| 1777663324 | 18.33° C | 46% | 1012.2 hPa | 0 mm | - | - | - |
| 1777663203 | 18.33° C | 46% | 1012.2 hPa | 0 mm | - | - | - |
* Rain latest hour (hover to see other rain measurements)
** Current wind speed in m/s (hover to see current wind gust speed)